Regional Weather Roundup
Issued by NWS

Home | Current Version | Previous Version | Text Only | Print | Product List | Glossary Off
Versions: 1 2 3 4 5 6 7 8 9 10 11 12 13 14 15 16 17 18 19 20 21 22 23 24 25 26 27 28 29 30 31 32 33 34 35 36 37 38 39 40 41 42 43 44 45 46 47 48 49 50

000
ASUS45 KABQ 230010
RWRNM
WEATHER ROUNDUP FOR NEW MEXICO
NATIONAL WEATHER SERVICE ALBUQUERQUE NM
600 PM MDT FRI AUG 22 2014

NOTE: "FAIR" MEANS FEW OR NO CLOUDS BELOW 12,000 FEET AGL WITH NO
       SIGNIFICANT WEATHER OR OBSTRUCTIONS TO VISION.

      THIS PRODUCT IS RELEASED AS TWO VERSIONS.  ONE VERSION NEAR
      THE TOP OF THE HOUR CONTAINING PRELIMINARY DATA FROM ALBUQUERQUE
      AND OTHER STATIONS.  A FINAL VERSION WITH ADDITIONAL DATA IS
      ISSUED ABOUT 10 MINUTES AFTER THE HOUR.

NMZ501-503-504-510>518-230100-
NORTHWEST PLATEAU/NORTHCENTRAL MOUNTAINS

CITY           SKY/WX    TMP DP  RH WIND       PRES   REMARKS
FARMINGTON     PTSUNNY   62  56  80 NE9       30.12S
6HR MIN TEMP:  58; 6HR MAX TEMP:  76; 6HR PCP:  0.37;

LOS ALAMOS     PTSUNNY   60  50  70 CALM      30.25F
SANTA FE       PTSUNNY   67  51  56 NW5       30.19F
6HR MIN TEMP:  58; 6HR MAX TEMP:  68; 6HR PCP:  0.02;

TAOS           CLOUDY    57  50  77 S3        30.26F
ANGEL FIRE     CLOUDY    54  48  81 CALM      30.31S

$$
NMZ402-403-502-505>509-230100-
WESTCENTRAL MOUNTAINS/SOUTHWEST MOUNTAINS

CITY           SKY/WX    TMP DP  RH WIND       PRES   REMARKS
GALLUP         MOSUNNY   73  41  31 SW18      30.17R
6HR MIN TEMP:  67; 6HR MAX TEMP:  75; 6HR PCP:  0.01;

SILVER CITY    PTSUNNY   81  48  32 W16       30.14R

$$
NMZ407-409-411-412-230100-
SOUTHERN DESERTS

CITY           SKY/WX    TMP DP  RH WIND       PRES   REMARKS
LORDSBURG      MOCLDY    81  54  39 SW15      30.06R
DEMING         MOSUNNY   82  57  42 S13       30.05R
6HR MIN TEMP:  76; 6HR MAX TEMP:  85;

LAS CRUCES     MOSUNNY   78  61  55 SE9       30.09S
HOLLOMAN AFB   CLOUDY    73  63  68 S10       30.06F
ALAMOGORDO     CLOUDY    72  63  73 S7        30.08F
T OR C         MOSUNNY   80  57  45 SE16G22   30.06F
6HR MIN TEMP:  70; 6HR MAX TEMP:  81; 6HR PCP: TRACE;


$$
NMZ519>523-230100-
CENTRAL VALLEYS/CENTRAL HIGHLANDS

CITY           SKY/WX    TMP DP  RH WIND       PRES   REMARKS
ALBUQUERQUE    PTSUNNY   71  53  52 NW7       30.15R
6HR MIN TEMP:  63; 6HR MAX TEMP:  72; 6HR PCP:  0.01;

MORIARTY ARPT  FAIR      67  53  59 NW5       30.19S
6HR MIN TEMP:  62; 6HR MAX TEMP:  71;

CLINES CORNERS PTSUNNY   64  52  64 NW12      30.20F
6HR MIN TEMP:  58; 6HR MAX TEMP:  68; 6HR PCP:  0.05;

BELEN          FAIR      69  57  64 CALM      30.14R
6HR MIN TEMP:  63; 6HR MAX TEMP:  70;

SOCORRO        LGT RAIN  61  58  91 S7        30.12R
6HR MIN TEMP:  61; 6HR MAX TEMP:  75; 6HR PCP:  0.34;


$$
NMZ524>526-539-540-230100-
SOUTHCENTRAL MOUNTAINS

CITY           SKY/WX    TMP DP  RH WIND       PRES   REMARKS
RUIDOSO        CLOUDY    63  57  82 NW6       30.23F

$$
NMZ527>531-230100-
NORTHEAST HIGHLANDS/NORTHEAST PLAINS

CITY           SKY/WX    TMP DP  RH WIND       PRES   REMARKS
LAS VEGAS      CLOUDY    67  48  50 SW12      30.18F
6HR MIN TEMP:  66; 6HR MAX TEMP:  74; 6HR PCP: TRACE;

RATON          PTSUNNY   70  55  59 S10       30.12S
6HR MIN TEMP:  61; 6HR MAX TEMP:  81; 6HR PCP:  0.09;

CLAYTON        PTSUNNY   85  50  29 S22G28    30.00R
6HR MIN TEMP:  83; 6HR MAX TEMP:  94;


$$
NMZ532>537-230100-
EASTCENTRAL PLAINS

CITY           SKY/WX    TMP DP  RH WIND       PRES   REMARKS
TUCUMCARI      MOSUNNY   84  54  35 W21       29.98R
6HR MIN TEMP:  84; 6HR MAX TEMP:  96;

CANNON AFB     LGT RAIN  75  62  64 W21G31    30.02R
6HR MIN TEMP:  75; 6HR MAX TEMP:  92; 6HR PCP:  0.13;

CLOVIS AIRPORT   N/A     88  52  29 S13G18    30.02S

$$
NMZ028-029-538-230100-
SOUTHEAST PLAINS

CITY           SKY/WX    TMP DP  RH WIND       PRES   REMARKS
ROSWELL        PTSUNNY   90  55  30 SW18      29.96F
6HR MIN TEMP:  88; 6HR MAX TEMP:  93;

ARTESIA        MOSUNNY   90  57  33 W20G26    29.98R
CARLSBAD         N/A     81  54  39 E10G45    29.96R THUNDER HAZE
6HR MIN TEMP:  78; 6HR MAX TEMP:  97; 6HR PCP: TRACE;

HOBBS          MOSUNNY   90  52  27 S10       29.98F


$$



USA.gov is the U.S. government's official web portal to all federal, state and local government web resources and services.